Temp
86 95 98 94 85 87 80 80 86 85 86 91 92 92 89 91 84 77 97 100 96 98 95 90 80 81 81 80 80 80 80 80 80 80 80 80 80 80 80 80 80 81 82 82 82 82 82 82 82
96 92 94 96 82 79 78 83 81 85 88 91 92 92 90 84 94 95 97 95 97 97 94 94 79 80 80 80 80 80 80 80 80 80 80 80 80 80 80 80 80 81 82 82 82 82 82 82 81
92 93 90 86 85 79 79 82 84 87 89 90 89 93 90 84 93 94 96 96 97 96 97 90 80 80 80 80 79 79 79 79 80 80 80 80 80 79 79 80 80 81 82 82 82 82 81 81 81
89 94 92 80 76 77 79 83 86 87 89 92 92 86 90 94 92 94 96 97 97 100 99 83 79 79 80 80 80 79 79 79 79 80 80 80 80 79 79 80 80 81 82 82 81 81 81 81 81
96 93 85 73 71 78 82 85 87 86 86 89 91 85 87 94 99 98 97 97 98 100 100 93 80 79 80 80 80 79 79 79 79 80 80 80 79 79 79 80 80 81 81 81 81 80 80 80 80
90 92 80 74 73 77 83 86 87 87 89 88 89 87 88 99 98 100 100 97 100 97 97 94 81 79 79 79 79 79 79 79 79 79 79 79 79 79 79 79 80 80 80 80 80 80 79 79 79
86 85 81 78 76 76 79 87 84 85 86 85 90 84 90 95 99 100 101 100 99 98 97 95 95 86 79 79 79 78 78 78 79 79 79 79 79 79 79 79 79 80 79 79 79 79 79 79 79
94 91 77 79 76 73 81 85 88 86 83 92 93 83 84 92 97 101 102 102 102 100 100 97 94 98 93 93 79 78 78 78 78 78 78 78 78 79 79 78 79 79 79 79 79 79 79 79 79
89 82 76 74 75 76 84 82 88 89 86 88 89 88 90 94 96 98 98 98 104 101 101 101 100 97 96 97 91 79 78 78 78 79 78 79 90 89 88 84 79 79 79 79 79 79 79 79 79
89 85 74 79 80 79 82 83 83 84 83 84 86 91 93 93 93 91 92 95 97 98 99 102 99 96 95 95 94 91 93 91 90 90 88 90 92 93 93 88 79 79 79 79 79 79 79 79 95
83 77 78 79 81 82 81 82 85 82 79 83 82 86 90 91 90 92 94 94 95 97 99 100 98 93 94 96 95 95 94 93 92 90 90 89 93 92 92 93 89 88 81 90 85 86 89 93 96
77 79 79 80 81 80 79 83 80 83 83 86 86 87 89 90 90 89 89 92 94 95 95 96 97 94 93 95 95 95 95 94 92 92 89 88 89 90 91 93 93 90 93 90 93 94 92 92 91
78 78 80 81 81 81 81 79 80 81 85 86 87 87 88 89 89 91 91 91 91 90 92 94 93 90 91 90 91 92 94 94 94 92 91 90 85 87 90 91 93 94 94 94 93 93 91 89 89
78 79 79 81 80 81 78 79 79 83 85 85 85 86 88 88 88 89 90 88 86 85 86 88 88 88 91 90 85 88 93 95 92 93 92 88 89 86 83 90 90 92 93 95 94 92 90 90 91
79 75 78 78 78 77 79 75 75 82 83 82 83 86 86 87 88 86 86 84 84 84 82 81 82 87 85 87 90 88 93 95 93 94 90 87 85 86 86 90 90 90 92 92 92 92 90 90 91
74 75 70 78 76 77 76 68 79 82 80 79 83 84 84 84 84 84 84 83 83 81 79 79 82 81 82 83 88 91 94 94 94 94 94 87 85 84 83 87 89 91 90 90 92 90 90 90 90
73 67 66 70 77 74 74 69 79 84 81 79 81 83 83 82 81 81 82 82 81 80 78 77 78 79 78 80 85 89 89 92 94 95 94 90 84 83 81 85 87 88 89 90 90 90 89 88 89
64 65 68 67 74 73 71 72 78 81 81 80 81 82 81 79 78 79 80 81 81 80 78 77 78 75 77 79 79 87 90 89 89 93 94 90 87 84 81 83 84 79 85 89 89 86 89 88 89
69 67 65 70 74 68 68 70 75 79 81 80 80 79 77 78 79 79 79 80 80 78 77 75 75 74 77 80 80 86 87 86 83 85 89 89 87 84 80 80 83 83 76 82 85 85 83 86 88
68 66 66 70 71 69 68 68 74 77 78 78 76 77 76 77 78 77 79 78 78 77 76 75 74 73 76 79 79 79 85 89 90 89 88 88 88 84 79 75 81 82 83 72 73 81 85 86 88
68 64 63 63 67 70 68 66 71 74 75 76 77 77 77 76 76 76 77 77 78 76 76 75 73 73 74 73 80 80 81 83 85 88 89 88 87 84 80 78 83 83 81 82 73 72 77 80 86
61 68 64 62 61 56 69 53 67 70 70 73 75 75 76 76 76 77 77 77 76 77 78 76 74 73 75 73 74 72 76 77 84 87 89 89 86 85 85 83 84 83 84 82 81 81 70 70 74
63 66 64 63 59 59 61 55 65 67 65 70 73 74 76 78 77 77 77 77 78 78 78 77 74 73 72 72 71 73 74 78 82 84 83 84 86 85 87 86 85 81 84 84 83 80 76 78 68
67 65 65 65 60 50 60 56 59 66 66 69 72 74 75 77 77 78 78 78 79 79 78 76 74 71 72 72 71 70 69 71 74 77 81 85 87 88 85 86 85 79 82 84 84 80 79 79 76
66 60 47 48 47 49 59 53 58 67 70 71 71 74 76 77 78 78 77 78 76 76 75 75 73 70 71 70 71 70 69 70 70 75 79 80 84 87 85 83 84 81 78 83 84 82 79 79 78
61 58 47 35 43 50 60 51 61 68 71 72 73 73 74 75 78 77 77 76 76 74 73 73 72 70 70 69 69 69 70 73 75 76 79 81 84 86 86 83 83 83 81 82 83 83 81 80 77
59 52 60 46 50 46 55 62 66 68 68 71 72 72 72 74 73 74 75 74 73 72 72 71 71 70 70 67 68 68 69 69 70 70 74 79 80 83 84 84 82 82 82 83 81 83 80 76 76
61 65 48 47 32 38 52 54 56 62 63 67 67 68 71 72 73 74 74 72 72 73 72 72 71 70 69 69 69 69 68 69 70 71 72 76 78 80 81 82 82 82 82 82 79 77 79 76 72
59 54 55 53 50 38 40 50 66 63 66 65 67 67 66 69 71 72 73 73 73 73 73 70 70 69 69 68 68 67 68 68 69 70 72 76 78 79 79 81 81 81 81 80 77 77 78 74 70
62 57 57 42 43 49 45 44 67 67 61 61 65 63 64 69 70 71 72 72 70 69 69 68 67 67 68 68 67 67 67 68 67 69 71 75 75 78 81 81 82 82 82 80 78 77 76 73 68
MSLP
1010.42 1009.94 1009.42 1008.44 1006.59 1004.18 1003.62 1004.10 1004.41 1003.63 1003.48 1004.37 1003.99 1003.40 1003.83 1004.23 1004.56 1005.49 1007.30 1007.56 1008.19 1008.50 1009.48 1010.50 1011.07 1011.25 1011.45 1011.75 1011.91 1012.19 1012.39 1012.68 1012.88 1013.25 1013.63 1013.72 1013.72 1013.96 1014.21 1014.31 1014.43 1014.58 1014.81 1014.92 1015.06 1015.22 1015.45 1015.55 1015.69
1009.97 1009.70 1009.04 1006.53 1004.89 1003.07 1003.92 1004.75 1004.53 1004.60 1004.87 1005.01 1004.46 1004.05 1004.11 1005.35 1005.79 1006.28 1006.80 1008.28 1008.38 1008.84 1009.78 1010.29 1011.42 1011.67 1011.83 1012.12 1012.28 1012.37 1012.52 1012.83 1013.15 1013.42 1013.71 1013.87 1014.00 1014.09 1014.38 1014.60 1014.67 1014.82 1014.95 1015.19 1015.31 1015.41 1015.59 1015.70 1015.87
1010.19 1009.32 1007.61 1005.87 1004.60 1003.20 1004.17 1005.45 1005.45 1005.30 1005.39 1005.16 1004.71 1005.06 1005.39 1006.57 1006.97 1007.09 1008.36 1008.62 1008.75 1009.19 1009.72 1010.71 1011.51 1011.81 1012.08 1012.26 1012.59 1012.71 1012.73 1012.92 1013.31 1013.70 1013.98 1014.13 1014.22 1014.36 1014.56 1014.84 1014.98 1015.07 1015.17 1015.29 1015.52 1015.62 1015.74 1015.87 1015.97
1009.18 1008.27 1007.32 1006.28 1005.48 1006.33 1006.19 1006.41 1006.19 1005.45 1005.57 1005.51 1005.19 1005.64 1007.06 1007.82 1007.79 1008.43 1008.82 1008.74 1008.89 1009.02 1009.58 1011.23 1011.64 1011.90 1012.13 1012.35 1012.62 1012.88 1013.09 1013.27 1013.50 1013.81 1014.11 1014.26 1014.39 1014.58 1014.78 1014.96 1015.15 1015.25 1015.37 1015.46 1015.60 1015.76 1015.88 1016.02 1016.13
1008.75 1007.17 1005.64 1006.31 1006.98 1007.22 1007.29 1007.18 1006.57 1005.80 1005.95 1005.61 1005.59 1006.20 1007.24 1007.92 1008.14 1008.50 1008.77 1008.90 1008.83 1009.02 1009.47 1010.92 1011.96 1012.24 1012.44 1012.59 1012.71 1012.90 1013.18 1013.40 1013.60 1013.92 1014.16 1014.37 1014.47 1014.64 1014.83 1015.00 1015.20 1015.39 1015.54 1015.68 1015.75 1015.89 1015.98 1016.13 1016.30
1007.38 1006.70 1005.34 1005.71 1007.19 1007.66 1007.66 1007.54 1006.93 1006.39 1006.38 1006.43 1006.19 1006.78 1007.70 1008.09 1008.11 1008.20 1008.60 1008.97 1009.06 1009.53 1009.90 1010.76 1012.05 1012.37 1012.59 1012.82 1013.06 1013.23 1013.36 1013.50 1013.68 1013.84 1014.12 1014.35 1014.60 1014.78 1014.89 1015.04 1015.25 1015.43 1015.65 1015.85 1015.96 1016.03 1016.15 1016.28 1016.43
1006.90 1006.09 1005.49 1005.82 1007.02 1007.74 1008.26 1008.02 1007.69 1007.22 1007.04 1007.55 1007.39 1007.17 1008.02 1008.41 1008.64 1008.56 1008.54 1008.98 1009.32 1009.64 1010.02 1010.59 1011.08 1012.12 1012.74 1013.01 1013.20 1013.43 1013.62 1013.77 1013.88 1014.03 1014.14 1014.39 1014.61 1014.84 1014.94 1015.08 1015.26 1015.46 1015.65 1015.89 1016.08 1016.12 1016.23 1016.31 1016.44
1007.59 1006.66 1006.54 1006.81 1007.16 1008.03 1008.62 1008.22 1008.24 1008.04 1008.04 1008.10 1007.88 1007.67 1008.20 1009.17 1009.16 1008.59 1008.44 1008.69 1008.81 1009.39 1009.76 1010.37 1010.86 1010.86 1011.68 1011.97 1013.12 1013.44 1013.69 1013.93 1014.08 1014.16 1014.29 1014.47 1014.66 1014.86 1015.03 1015.07 1015.26 1015.40 1015.63 1015.80 1016.02 1016.17 1016.32 1016.35 1016.37
1008.20 1006.76 1006.62 1007.57 1007.73 1008.45 1008.68 1008.32 1008.56 1008.88 1008.32 1008.60 1008.75 1009.14 1009.47 1009.56 1009.51 1008.96 1008.71 1008.66 1008.73 1009.32 1009.45 1009.85 1010.04 1010.64 1010.94 1010.94 1011.85 1013.16 1013.54 1013.77 1014.01 1014.20 1014.36 1014.54 1014.10 1014.20 1014.50 1014.62 1014.86 1015.31 1015.55 1015.75 1015.87 1016.07 1016.25 1016.35 1016.30
1007.14 1006.92 1008.13 1008.99 1009.14 1009.00 1008.99 1008.92 1008.97 1008.70 1008.70 1008.79 1009.01 1009.39 1009.67 1009.78 1009.63 1009.55 1009.47 1009.06 1008.92 1009.03 1009.20 1009.50 1010.18 1010.61 1010.90 1011.21 1011.43 1012.06 1012.11 1012.61 1012.89 1013.07 1013.38 1013.70 1013.29 1013.27 1013.54 1014.00 1014.94 1015.16 1015.35 1015.65 1015.83 1015.93 1016.11 1016.12 1014.80
1008.37 1008.22 1009.33 1009.79 1010.01 1010.00 1009.51 1009.21 1009.22 1008.99 1008.78 1009.39 1009.46 1009.51 1009.56 1009.65 1009.84 1009.71 1009.52 1009.73 1009.77 1009.82 1009.96 1009.82 1010.14 1010.84 1010.97 1010.75 1011.04 1011.09 1011.46 1011.73 1012.17 1012.54 1012.76 1013.01 1012.72 1013.06 1013.43 1013.32 1014.19 1014.53 1015.08 1014.66 1015.20 1015.45 1015.21 1014.54 1014.16
1009.06 1009.71 1009.87 1009.91 1010.37 1010.25 1009.71 1009.74 1009.42 1009.22 1009.34 1010.04 1010.14 1010.23 1009.86 1009.67 1009.74 1010.12 1010.36 1010.33 1010.31 1010.41 1010.37 1010.53 1010.55 1010.60 1010.79 1010.69 1010.81 1010.76 1010.77 1011.04 1011.47 1011.71 1012.35 1012.48 1012.62 1012.67 1012.73 1012.72 1012.88 1013.53 1013.42 1013.78 1013.60 1013.54 1013.90 1014.17 1014.58
1009.28 1009.95 1010.14 1010.32 1010.34 1010.31 1010.32 1009.87 1009.68 1009.52 1010.04 1010.31 1010.29 1010.21 1009.90 1009.94 1010.08 1010.23 1010.44 1010.64 1010.81 1010.77 1010.83 1010.80 1011.00 1011.06 1010.80 1010.71 1010.85 1010.86 1010.42 1010.69 1010.85 1011.28 1011.59 1012.09 1012.37 1012.31 1012.43 1012.32 1012.36 1012.40 1012.71 1012.87 1013.04 1013.24 1013.57 1014.20 1014.34
1010.39 1010.24 1010.18 1010.22 1010.20 1010.17 1010.14 1009.83 1010.12 1009.41 1010.15 1010.11 1010.12 1009.93 1009.91 1010.09 1010.31 1010.49 1010.61 1010.95 1011.22 1011.35 1011.36 1011.27 1011.23 1011.12 1010.86 1010.57 1010.88 1010.84 1010.20 1010.02 1010.59 1010.42 1010.89 1011.67 1011.81 1012.29 1012.54 1012.21 1012.27 1012.18 1012.27 1012.32 1012.56 1012.83 1013.37 1013.70 1013.61
1010.49 1009.87 1009.90 1010.11 1010.41 1010.16 1010.72 1009.62 1009.51 1009.66 1010.33 1010.02 1009.97 1009.92 1010.00 1010.24 1010.59 1010.76 1011.27 1011.61 1011.77 1011.81 1011.82 1011.87 1011.61 1011.15 1010.96 1010.53 1010.18 1010.25 1009.66 1009.45 1009.93 1009.79 1010.20 1010.87 1011.39 1011.53 1011.82 1011.76 1011.70 1011.81 1011.99 1012.21 1012.25 1012.49 1013.02 1013.19 1013.35
1010.02 1009.93 1009.09 1009.31 1010.51 1010.52 1010.82 1009.02 1008.57 1009.73 1010.08 1009.82 1009.68 1009.63 1009.78 1010.35 1010.88 1011.31 1011.57 1011.84 1012.09 1012.14 1012.18 1012.09 1011.77 1011.45 1010.97 1010.61 1009.91 1009.42 1008.94 1008.97 1009.09 1009.24 1009.34 1010.31 1010.78 1011.28 1011.58 1011.54 1011.23 1011.27 1011.70 1011.89 1011.90 1012.23 1012.41 1012.61 1012.62
1009.75 1009.12 1009.42 1009.51 1010.02 1010.57 1010.24 1009.17 1008.93 1009.18 1009.41 1009.23 1009.13 1009.07 1009.32 1010.40 1010.95 1011.61 1011.73 1012.06 1012.35 1012.46 1012.45 1012.22 1011.91 1011.48 1011.07 1010.53 1009.86 1009.18 1008.90 1008.67 1008.44 1008.47 1008.62 1009.18 1010.38 1010.70 1011.21 1011.23 1010.96 1011.11 1011.27 1011.32 1011.47 1011.60 1011.79 1011.82 1012.11
1009.85 1009.73 1009.67 1009.61 1009.82 1010.39 1009.89 1009.05 1008.64 1008.66 1008.61 1008.40 1008.54 1008.66 1009.23 1010.29 1011.02 1011.69 1011.93 1012.30 1012.44 1012.58 1012.64 1012.46 1012.07 1011.74 1010.91 1010.32 1009.93 1008.98 1008.38 1008.42 1008.39 1008.01 1008.00 1008.66 1009.42 1010.01 1010.48 1010.71 1011.01 1011.15 1010.96 1010.89 1011.01 1011.23 1011.27 1011.38 1011.37
1010.78 1010.48 1010.13 1009.94 1010.37 1010.73 1009.80 1009.17 1008.53 1008.16 1007.89 1007.70 1007.99 1008.45 1009.54 1010.21 1011.03 1011.54 1011.97 1012.17 1012.27 1012.54 1012.60 1012.51 1012.13 1011.89 1011.08 1010.06 1009.44 1008.22 1007.70 1007.96 1008.34 1008.39 1007.81 1007.98 1008.76 1009.25 1009.83 1010.28 1010.52 1010.88 1010.97 1010.61 1010.79 1011.00 1011.08 1010.98 1011.02
1010.93 1010.58 1010.16 1010.27 1010.63 1010.75 1009.78 1008.76 1008.16 1007.84 1007.64 1007.87 1008.43 1008.60 1009.41 1010.13 1010.69 1011.49 1011.78 1012.05 1012.19 1012.36 1012.52 1012.50 1012.37 1012.17 1011.48 1010.68 1009.87 1009.37 1007.84 1007.19 1007.13 1007.32 1007.33 1007.50 1007.75 1008.50 1009.29 1009.83 1009.98 1010.06 1010.37 1010.81 1010.75 1010.57 1010.09 1010.18 1010.16
1010.67 1010.64 1010.87 1011.03 1011.09 1010.61 1009.30 1007.92 1006.71 1007.56 1007.99 1008.12 1008.43 1008.94 1009.39 1009.76 1010.32 1010.95 1011.34 1011.67 1011.87 1012.08 1012.27 1012.34 1012.44 1012.23 1011.71 1011.37 1010.02 1009.14 1008.45 1007.71 1007.14 1006.54 1006.33 1006.77 1007.18 1007.66 1008.36 1008.87 1008.94 1009.10 1009.64 1009.81 1010.54 1010.53 1010.96 1010.22 1009.82
1010.96 1011.29 1011.87 1011.78 1011.31 1009.88 1009.65 1007.63 1006.83 1007.04 1007.56 1007.82 1007.98 1008.50 1009.00 1009.59 1010.25 1010.57 1010.92 1011.27 1011.55 1011.85 1011.97 1012.14 1012.30 1012.11 1011.64 1011.49 1010.68 1010.03 1008.82 1007.87 1006.86 1006.27 1005.92 1005.95 1006.87 1007.15 1007.41 1007.98 1008.17 1008.34 1008.81 1008.81 1009.27 1009.83 1010.76 1010.71 1010.15
1011.87 1012.51 1012.36 1012.03 1011.45 1010.50 1009.16 1008.90 1006.45 1007.44 1007.52 1007.38 1007.53 1008.21 1008.69 1009.10 1009.64 1010.00 1010.44 1010.98 1011.17 1011.51 1011.63 1011.76 1011.96 1011.92 1011.70 1011.43 1011.14 1010.42 1009.29 1008.41 1007.38 1006.59 1006.06 1005.73 1005.79 1006.39 1006.60 1006.94 1007.37 1007.80 1007.99 1007.98 1008.33 1008.90 1009.54 1009.84 1010.05
1013.04 1012.56 1011.90 1011.37 1011.28 1009.86 1008.03 1008.57 1006.85 1006.21 1006.71 1007.13 1007.54 1007.96 1008.38 1008.86 1009.40 1009.82 1010.25 1010.57 1010.59 1011.02 1011.23 1011.36 1011.43 1011.55 1011.38 1011.20 1010.81 1010.47 1009.81 1008.98 1008.10 1007.14 1006.15 1005.37 1005.12 1005.19 1005.77 1006.05 1006.47 1007.30 1007.68 1007.46 1007.74 1008.24 1008.56 1008.92 1009.40
1012.64 1012.44 1011.89 1010.74 1010.23 1009.18 1009.17 1008.99 1007.35 1006.94 1007.12 1007.24 1007.40 1007.67 1008.10 1008.54 1008.86 1009.19 1009.63 1010.10 1010.54 1010.72 1011.11 1011.13 1010.99 1010.91 1010.98 1010.81 1010.68 1010.12 1009.65 1008.92 1008.15 1007.14 1006.08 1005.40 1004.67 1004.30 1004.36 1005.38 1005.70 1006.31 1007.09 1007.24 1007.44 1007.67 1008.13 1008.53 1008.87
1013.02 1013.33 1013.03 1012.19 1010.73 1009.54 1009.43 1007.51 1006.53 1007.45 1007.72 1007.86 1007.93 1008.13 1008.41 1008.60 1008.69 1008.97 1009.48 1010.00 1010.33 1010.67 1010.97 1010.97 1010.86 1010.64 1010.53 1010.32 1009.77 1009.44 1009.20 1008.31 1007.61 1006.71 1006.05 1005.28 1004.32 1003.77 1004.05 1004.71 1005.13 1005.59 1006.28 1006.76 1006.87 1007.30 1007.75 1007.88 1008.44
1012.86 1013.65 1013.95 1013.81 1012.99 1011.09 1008.59 1006.68 1006.80 1007.07 1007.47 1007.52 1007.83 1008.10 1008.26 1008.28 1009.14 1009.60 1009.69 1010.12 1010.36 1010.62 1010.71 1010.71 1010.53 1010.43 1010.17 1009.82 1009.65 1008.81 1008.58 1008.20 1007.68 1007.11 1006.28 1005.15 1004.49 1003.89 1003.65 1003.98 1004.45 1004.78 1005.07 1005.37 1005.96 1006.43 1006.94 1007.66 1008.07
1013.70 1013.84 1014.27 1014.65 1013.55 1010.75 1007.76 1007.00 1006.09 1006.59 1007.07 1007.53 1008.18 1008.28 1008.43 1008.72 1009.11 1009.44 1009.71 1009.98 1010.29 1010.30 1010.36 1010.15 1010.20 1010.01 1009.77 1009.42 1008.98 1008.46 1008.28 1008.00 1007.35 1006.61 1005.75 1004.79 1004.08 1003.76 1003.52 1003.51 1003.82 1004.04 1004.23 1004.60 1005.29 1005.90 1006.39 1007.06 1007.62
1013.17 1013.63 1014.03 1014.37 1013.58 1011.89 1009.66 1007.04 1006.83 1007.51 1007.75 1007.83 1008.12 1008.84 1009.40 1009.28 1009.14 1009.61 1009.60 1009.76 1009.79 1009.93 1009.96 1009.80 1009.82 1009.64 1009.31 1009.08 1008.70 1008.29 1007.87 1007.44 1006.84 1006.13 1005.29 1004.23 1003.45 1003.16 1003.02 1002.87 1003.11 1003.39 1003.63 1004.10 1004.78 1005.01 1005.67 1006.40 1007.20
1013.31 1013.41 1013.51 1013.55 1012.96 1011.87 1010.81 1008.03 1009.08 1008.29 1008.93 1009.82 1008.94 1010.12 1009.99 1009.77 1009.83 1009.66 1009.43 1009.47 1009.61 1009.70 1009.71 1009.64 1009.62 1009.48 1009.08 1008.72 1008.28 1007.77 1007.31 1006.82 1006.22 1005.49 1004.74 1003.61 1002.93 1002.43 1002.00 1002.03 1002.28 1002.68 1003.10 1003.78 1004.33 1004.41 1004.90 1005.72 1006.65
Wind_Speed
8 5 5 6 8 7 5 6 3 6 4 9 4 7 14 14 11 7 6 7 2 12 13 13 8 9 11 9 11 12 13 13 15 14 13 13 15 14 13 13 12 12 13 13 13 13 12 11 10
3 4 5 4 9 8 8 6 8 6 6 6 2 3 9 15 11 11 5 5 4 12 11 11 8 8 10 10 9 12 13 12 12 13 13 13 13 14 13 11 11 11 12 13 13 12 11 10 9
10 5 5 4 5 5 6 8 9 3 3 2 4 9 6 8 14 8 9 6 9 12 11 12 9 8 9 10 8 9 11 12 12 11 11 11 12 12 12 11 9 10 12 12 12 11 9 9 8
3 7 6 3 6 7 8 9 8 2 4 3 3 10 11 11 7 8 7 5 8 11 12 14 10 9 10 11 10 9 9 10 11 11 11 11 11 10 10 10 9 9 10 11 11 10 9 8 7
4 6 5 8 2 5 7 9 7 8 2 4 2 14 14 12 11 8 8 5 6 8 9 12 7 6 7 8 10 11 10 10 11 11 11 11 11 10 10 10 9 9 9 9 10 10 8 7 6
6 5 8 12 10 3 7 7 7 8 9 7 11 12 11 10 10 9 8 7 7 8 5 11 9 6 6 6 6 7 8 10 10 11 12 11 10 10 10 10 10 9 9 8 9 8 7 6 5
2 6 1 8 10 9 6 5 8 5 9 11 1 7 7 13 10 8 5 7 6 7 7 7 10 8 6 5 6 6 6 7 9 10 10 11 10 10 10 10 10 10 9 8 8 7 7 6 6
2 2 8 3 9 6 6 2 5 11 10 4 5 3 8 9 9 5 5 3 4 7 5 5 5 10 8 10 8 7 7 7 7 8 9 10 10 10 10 9 10 10 10 9 8 7 6 6 6
3 5 6 5 5 5 4 4 7 2 4 9 7 7 6 7 5 8 4 1 1 1 4 4 5 6 7 8 11 10 9 9 8 9 9 9 11 13 14 13 14 11 11 10 9 7 7 7 7
3 2 6 4 5 3 3 5 4 2 3 7 7 10 8 6 4 4 5 6 6 4 5 3 3 4 6 5 7 9 10 10 11 11 12 11 12 10 12 12 10 10 10 10 10 9 8 9 8
6 7 5 5 4 4 4 5 3 3 4 5 6 7 7 6 6 6 6 6 7 5 5 8 3 5 8 6 6 5 6 7 8 12 11 11 9 9 9 8 9 9 11 9 12 11 9 11 6
8 4 2 3 2 3 4 3 2 3 6 4 3 4 5 6 7 8 10 10 10 10 7 7 8 7 8 7 6 7 6 7 7 10 13 10 8 9 9 9 10 11 10 12 10 8 8 6 7
4 4 3 4 3 1 3 1 6 6 1 1 2 5 6 7 7 7 7 10 11 11 12 10 9 7 10 9 8 9 8 8 9 9 12 11 8 8 9 9 9 9 10 10 10 9 7 8 8
3 1 4 3 4 2 7 3 6 4 2 6 6 8 8 8 8 9 9 11 11 13 13 13 12 9 9 10 10 10 9 10 9 9 10 14 11 9 8 10 10 10 10 10 10 9 8 8 8
1 9 7 3 2 3 5 12 12 2 5 8 9 10 9 10 9 8 9 9 10 11 13 13 13 12 11 12 12 11 11 10 10 11 12 12 12 12 12 10 10 10 9 12 10 9 8 8 7
3 6 6 6 3 7 7 13 4 4 7 10 13 12 8 10 8 6 7 7 8 10 11 12 11 13 13 13 12 10 11 11 11 11 10 13 12 12 12 11 10 9 9 10 10 10 10 9 9
3 7 6 6 2 6 7 12 10 10 11 15 15 14 6 7 3 3 5 6 8 9 11 12 13 13 12 12 12 11 12 11 11 11 10 13 13 14 12 11 10 10 9 10 10 10 9 9 8
9 10 8 10 6 10 15 16 14 15 15 17 16 14 5 6 2 3 4 5 7 9 10 11 12 15 13 7 9 11 11 10 10 12 12 13 12 15 13 11 12 6 9 10 10 10 10 9 9
9 11 12 11 12 11 15 17 17 18 18 14 9 4 5 6 3 4 4 4 6 8 9 12 13 15 12 11 9 9 10 10 10 13 17 15 14 14 12 11 12 11 8 9 12 11 12 10 9
11 13 13 12 5 13 18 22 19 14 12 8 6 5 7 6 6 3 2 3 6 8 9 11 13 14 12 11 9 9 11 9 12 13 14 15 16 15 11 11 12 14 12 6 6 14 12 12 11
14 11 13 15 16 18 19 20 9 6 7 6 6 4 5 6 5 4 1 2 6 7 8 10 12 13 12 14 10 9 8 10 11 11 12 13 16 14 14 15 14 13 12 12 10 8 11 10 11
14 9 7 13 16 16 15 13 15 6 7 10 9 7 8 8 8 5 4 2 4 7 8 9 11 12 12 14 12 13 9 10 11 10 12 11 15 17 17 17 16 13 12 13 13 12 11 10 7
12 6 14 16 17 19 18 9 5 6 11 11 6 9 9 8 7 6 4 2 4 6 8 9 11 12 13 12 12 11 11 10 10 11 14 11 11 16 17 17 16 12 12 12 13 13 14 11 8
8 14 16 11 9 11 4 7 10 6 6 6 7 7 7 7 8 7 6 6 7 9 10 11 13 14 13 14 13 13 14 12 11 11 13 12 11 12 16 17 15 11 13 12 11 11 13 12 12
6 11 6 6 7 11 4 9 15 14 11 11 10 8 7 7 10 10 10 9 10 12 12 13 15 16 16 15 14 13 14 14 14 14 10 13 12 12 12 15 14 11 11 13 11 11 12 12 13
13 8 5 7 9 16 18 12 5 4 4 6 6 7 6 9 10 9 10 11 13 12 13 14 16 17 16 17 17 14 14 11 11 13 11 11 12 12 11 13 15 16 15 14 13 10 10 11 12
2 7 7 9 16 14 12 13 13 15 12 10 13 8 11 13 7 13 13 11 11 13 15 15 15 16 16 17 15 15 14 14 14 16 15 12 12 13 13 15 17 18 18 17 14 11 12 10 11
10 6 6 4 6 14 13 21 16 6 3 7 11 11 13 9 11 13 12 11 11 13 15 15 15 16 16 16 15 13 15 16 15 14 16 16 14 13 14 15 16 17 16 16 14 10 13 13 9
7 11 11 10 11 15 19 11 14 15 17 16 10 11 17 16 13 14 14 14 15 15 17 16 16 17 16 15 15 16 16 16 15 15 16 15 15 14 16 16 17 17 15 14 14 14 14 14 10
11 15 16 11 18 17 16 22 19 19 17 28 17 18 17 15 15 16 17 17 17 16 17 16 15 16 15 15 16 16 16 16 16 15 16 17 15 14 16 17 17 16 14 14 15 16 13 13 12
Wind_Direction
256 240 233 233 240 242 115 67 333 347 136 30 46 16 65 37 18 50 66 124 151 150 141 156 133 133 133 140 144 148 148 154 157 162 167 161 150 147 148 147 145 144 142 140 145 143 146 146 145
279 197 238 260 260 205 108 17 12 9 1 339 95 145 71 70 42 90 114 79 132 136 144 144 126 125 132 139 143 143 144 149 156 161 166 159 152 151 153 151 148 148 147 147 150 150 153 152 152
248 239 266 299 282 346 88 26 10 18 8 320 119 40 36 28 47 53 48 86 128 146 149 123 138 138 140 142 141 139 141 143 150 159 163 158 155 155 153 154 153 152 156 155 155 158 157 158 159
249 196 177 261 81 51 47 30 355 106 108 48 56 81 83 51 48 41 55 88 145 148 147 134 143 150 154 153 151 145 143 145 150 157 161 161 159 156 154 156 157 158 160 160 159 162 162 165 167
228 256 198 159 182 101 59 25 7 67 47 102 167 97 82 51 85 65 77 88 132 136 135 146 137 146 160 165 160 158 156 155 156 161 165 167 165 162 160 160 158 160 161 161 164 169 170 169 178
209 280 211 165 141 127 69 23 24 56 80 56 96 101 75 61 51 64 67 72 101 120 141 129 145 156 163 176 177 171 167 166 166 166 168 171 172 169 165 162 159 160 161 167 172 172 169 174 185
274 244 253 130 139 110 42 13 34 37 42 47 118 98 90 53 28 34 79 100 105 125 154 159 169 166 178 187 187 189 185 180 175 173 171 173 175 178 173 165 162 161 159 166 175 175 171 178 195
315 268 171 168 183 93 48 49 13 22 53 95 347 59 71 28 12 11 40 69 109 134 138 181 203 177 195 178 185 200 200 199 191 185 180 180 178 183 181 167 171 168 165 171 178 186 184 193 198
253 220 138 113 193 99 55 349 52 51 50 59 61 41 17 9 19 9 359 230 39 111 176 201 200 200 209 216 164 186 203 205 200 202 197 180 211 193 190 203 160 180 177 175 184 193 197 200 213
321 104 73 57 70 22 356 331 3 292 104 91 82 74 69 64 39 55 20 346 345 337 315 278 237 255 228 234 211 201 201 208 207 205 198 217 215 205 212 190 168 186 192 185 186 194 201 214 222
22 81 118 111 35 338 330 271 327 267 151 63 50 37 36 42 61 20 13 23 3 358 311 308 258 257 271 227 232 219 211 210 211 220 213 211 207 205 206 199 197 209 202 210 192 192 218 220 238
114 80 26 67 94 270 261 26 214 292 67 51 20 3 336 353 8 16 0 357 355 347 339 338 316 283 253 268 217 251 230 223 214 209 209 221 216 208 212 213 206 205 208 219 224 213 221 215 226
51 84 101 105 122 192 184 103 320 207 84 267 285 251 323 334 335 351 339 342 342 332 333 325 331 308 284 238 259 252 247 217 235 222 208 216 217 219 215 218 221 213 216 208 220 228 194 210 217
46 74 136 97 62 141 252 275 239 206 228 263 268 302 312 319 326 319 332 331 332 330 324 323 311 304 282 249 235 249 241 244 227 231 219 212 219 211 227 219 215 223 218 219 217 210 205 218 218
189 239 185 160 1 132 302 250 227 87 275 268 265 281 289 299 308 329 338 332 337 330 331 329 310 300 288 270 245 235 246 227 244 231 216 215 211 221 230 225 220 213 219 227 217 215 211 219 211
275 246 289 89 305 122 287 279 228 89 259 272 277 275 277 287 312 349 350 349 356 348 350 342 336 313 292 281 267 244 246 233 229 234 223 212 214 218 219 231 226 213 221 214 215 212 212 217 215
150 332 313 316 126 308 275 303 285 287 280 279 278 274 274 276 274 10 27 28 29 27 13 2 353 351 322 283 273 255 249 244 237 231 229 205 218 210 215 226 235 216 218 218 217 214 218 211 225
328 316 308 302 347 316 290 282 293 292 279 277 281 279 267 244 85 88 65 58 58 47 35 22 12 4 346 303 270 260 250 243 246 240 229 215 216 213 205 222 222 228 224 217 215 217 208 228 209
308 297 290 297 330 294 293 293 290 295 295 287 284 280 213 243 149 116 79 52 44 35 22 15 9 7 0 352 318 259 243 233 227 242 240 220 214 225 202 213 218 213 226 233 208 210 218 206 215
293 289 287 310 274 308 299 295 290 281 279 303 287 241 217 208 191 152 97 49 32 20 16 13 4 2 356 356 339 299 294 252 243 230 232 227 218 210 202 201 221 212 211 218 242 226 212 212 194
288 285 298 312 310 285 290 285 273 215 262 247 222 274 241 235 216 193 180 36 3 5 5 7 0 357 356 349 344 345 272 270 264 250 230 221 226 205 205 202 223 210 217 214 208 213 240 219 201
293 16 303 287 293 295 320 292 284 208 246 223 259 236 218 207 204 214 240 330 356 356 353 353 352 353 354 351 341 341 315 289 283 260 252 228 221 226 216 216 215 214 208 218 217 206 198 225 250
307 326 295 291 287 288 271 237 110 181 258 249 263 219 228 225 232 241 252 308 323 334 341 337 337 342 339 341 340 325 317 320 304 273 269 251 236 222 228 220 222 213 219 210 217 211 207 204 206
319 283 284 281 267 256 277 242 283 294 297 266 225 236 230 243 235 248 257 279 310 326 332 330 331 333 332 329 328 320 309 305 303 298 282 253 246 226 220 225 216 206 224 220 207 221 221 214 215
258 302 307 274 213 272 106 260 259 287 275 264 262 267 251 259 260 256 275 297 314 316 326 323 329 324 327 321 311 311 308 298 287 279 272 263 249 239 218 212 215 199 206 225 220 214 219 221 220
290 294 261 289 304 307 304 266 13 356 300 269 258 262 261 289 287 294 292 289 305 313 314 316 317 316 317 318 314 316 308 299 295 279 285 277 253 244 226 210 212 205 199 217 217 223 225 221 219
93 247 2 302 276 268 265 259 212 232 262 264 261 253 273 284 320 308 311 302 302 308 306 311 310 308 308 310 310 309 303 297 291 288 279 273 258 258 239 218 212 209 208 204 201 217 218 220 217
254 352 241 205 275 285 284 311 298 313 279 266 300 294 329 309 294 304 306 304 299 303 304 305 308 305 303 304 300 301 301 291 286 287 281 276 267 248 245 226 217 212 203 197 195 202 217 211 208
228 222 221 290 276 272 289 279 345 327 302 294 284 344 310 313 326 312 308 303 307 311 309 311 308 304 301 301 297 292 291 291 286 286 283 273 264 243 230 226 218 211 205 196 198 195 207 212 192
293 281 286 263 275 268 267 273 295 305 4 334 333 332 311 322 310 307 305 306 308 310 311 309 308 304 301 303 298 288 288 290 283 284 285 275 262 249 231 219 212 209 204 202 206 199 199 197 182